,,,PA_Meas_PMT16A,,PR_Meas_QMR101_102,,RH_Meas_QMH101,,SR_Meas_QMS101,,TA_Meas_QMH101,,GenWind,,GenWind,
date,time,status,PA,status,PR,status,RH,status,SR,status,TA,status,DirAvg,status,SpdAvg,
2011-03-09, 00:00:04,VALID,1001.18,VALID,0,VALID,89.0682,VALID,0,VALID,24.0897,VALID,90,VALID,0.523438,
2011-03-09, 00:01:04,VALID,1001.18,VALID,0,VALID,89.03,VALID,0.112286,VALID,24.0897,VALID,90,VALID,0.509375,
2011-03-09, 00:02:04,VALID,1001.19,VALID,0,VALID,88.9003,VALID,0.112286,VALID,24.0701,VALID,90,VALID,0.644922,
2011-03-09, 00:03:04,VALID,1001.16,VALID,0,VALID,88.8088,VALID,0.112286,VALID,24.1092,VALID,157,VALID,0.911328,
2011-03-09, 00:04:04,VALID,1001.14,VALID,0,VALID,88.6867,VALID,0,VALID,24.1305,VALID,157,VALID,1.16836,
2011-03-09, 00:05:04,VALID,1001.14,VALID,0,VALID,88.4044,VALID,0,VALID,24.1482,VALID,157,VALID,0.901563,
2011-03-09, 00:06:04,VALID,1001.13,VALID,0,VALID,88.2213,VALID,0.112286,VALID,24.1872,VALID,171,VALID,0.938672,
2011-03-09, 00:07:04,VALID,1001.15,VALID,0,VALID,88.0458,VALID,0.112286,VALID,24.2067,VALID,161,VALID,0.969922,
2011-03-09, 00:08:04,VALID,1001.14,VALID,0,VALID,87.9085,VALID,0,VALID,24.2067,VALID,160,VALID,0.976563,
2011-03-09, 00:09:04,VALID,1001.16,VALID,0,VALID,87.7101,VALID,0,VALID,24.2067,VALID,160,VALID,0.620313,
2011-03-09, 00:10:04,VALID,1001.11,VALID,0,VALID,87.7101,VALID,0,VALID,24.2067,VALID,160,VALID,0.7,
2011-03-09, 00:11:04,VALID,1001.14,VALID,0,VALID,87.672,VALID,0,VALID,24.1872,VALID,160,VALID,0.619531,
2011-03-09, 00:12:04,VALID,1001.13,VALID,0,VALID,87.8627,VALID,0,VALID,24.1677,VALID,160,VALID,0.591797,
2011-03-09, 00:13:04,VALID,1001.12,VALID,0,VALID,87.9161,VALID,0,VALID,24.1891,VALID,160,VALID,0.590625,
2011-03-09, 00:14:04,VALID,1001.09,VALID,0,VALID,87.7406,VALID,0,VALID,24.1287,VALID,160,VALID,0.452344,
2011-03-09, 00:15:04,VALID,1001.09,VALID,0,VALID,87.7635,VALID,0,VALID,24.1092,VALID,160,VALID,0.419531,
2011-03-09, 00:16:04,VALID,1001.08,VALID,0,VALID,88.0229,VALID,0.112286,VALID,24.0897,VALID,160,VALID,0.449219,
2011-03-09, 00:17:04,VALID,1001.06,VALID,0,VALID,88.145,VALID,0,VALID,24.0897,VALID,160,VALID,0.466016,
2011-03-09, 00:18:04,VALID,1001.07,VALID,0,VALID,88.2518,VALID,0.112286,VALID,24.0701,VALID,160,VALID,0.490234,
2011-03-09, 00:19:04,VALID,1001.03,VALID,0,VALID,88.2213,VALID,0,VALID,24.0701,VALID,160,VALID,0.664453,
2011-03-09, 00:20:04,VALID,1001.03,VALID,0,VALID,88.29,VALID,0,VALID,24.0506,VALID,125,VALID,0.889063,
2011-03-09, 00:21:04,VALID,1001.04,VALID,0,VALID,88.3586,VALID,0,VALID,24.0311,VALID,120,VALID,0.956641,
2011-03-09, 00:22:04,VALID,1001.01,VALID,0,VALID,88.4731,VALID,0,VALID,24.0311,VALID,116,VALID,0.957812,
2011-03-09, 00:23:04,VALID,1000.98,VALID,0,VALID,88.6333,VALID,0,VALID,24.0134,VALID,116,VALID,0.810938,
2011-03-09, 00:24:04,VALID,1000.96,VALID,0,VALID,88.8546,VALID,0,VALID,23.9726,VALID,116,VALID,0.624609,
2011-03-09, 00:25:04,VALID,1000.93,VALID,0,VALID,89.0148,VALID,0,VALID,23.9531,VALID,116,VALID,0.65,
2011-03-09, 00:26:04,VALID,1000.9,VALID,0,VALID,89.1445,VALID,0,VALID,23.9531,VALID,116,VALID,0.371094,
2011-03-09, 00:27:04,VALID,1000.91,VALID,0,VALID,89.2818,VALID,0,VALID,23.914,VALID,116,VALID,0.459766,
2011-03-09, 00:28:04,VALID,1000.88,VALID,0,VALID,89.3886,VALID,0,VALID,23.9159,VALID,116,VALID,0.576563,
2011-03-09, 00:29:04,VALID,1000.87,VALID,0,VALID,89.4954,VALID,0,VALID,23.8963,VALID,97,VALID,0.558984,
2011-03-09, 00:30:04,VALID,1000.85,VALID,0,VALID,89.6099,VALID,0,VALID,23.8768,VALID,97,VALID,0.525,
2011-03-09, 00:31:04,VALID,1000.85,VALID,0,VALID,89.7091,VALID,0,VALID,23.8768,VALID,97,VALID,0.450391,
2011-03-09, 00:32:04,VALID,1000.82,VALID,0,VALID,89.7549,VALID,0,VALID,23.8768,VALID,97,VALID,0.626172,
2011-03-09, 00:33:04,VALID,1000.83,VALID,0,VALID,89.8159,VALID,0,VALID,23.875,VALID,97,VALID,0.595703,
2011-03-09, 00:34:04,VALID,1000.83,VALID,0,VALID,89.8769,VALID,0,VALID,23.8768,VALID,97,VALID,0.760938,
2011-03-09, 00:35:04,VALID,1000.82,VALID,0,VALID,89.8998,VALID,0.112286,VALID,23.8768,VALID,97,VALID,0.683203,
2011-03-09, 00:36:04,VALID,1000.86,VALID,0,VALID,89.938,VALID,0,VALID,23.8768,VALID,97,VALID,0.736719,
2011-03-09, 00:37:04,VALID,1000.86,VALID,0,VALID,89.9456,VALID,0,VALID,23.8963,VALID,97,VALID,0.750781,
2011-03-09, 00:38:04,VALID,1000.85,VALID,0,VALID,89.9151,VALID,0,VALID,23.9354,VALID,97,VALID,0.475,
2011-03-09, 00:39:04,VALID,1000.88,VALID,0,VALID,89.854,VALID,0,VALID,23.9159,VALID,97,VALID,0.408203,
2011-03-09, 00:40:04,VALID,1000.89,VALID,0,VALID,89.7396,VALID,0,VALID,23.8963,VALID,97,VALID,0.290234,
2011-03-09, 00:41:04,VALID,1000.84,VALID,0,VALID,89.7777,VALID,0,VALID,23.875,VALID,97,VALID,0.0953125,
2011-03-09, 00:42:04,VALID,1000.87,VALID,0,VALID,89.7701,VALID,0,VALID,23.8378,VALID,97,VALID,0,
2011-03-09, 00:43:04,VALID,1000.85,VALID,0,VALID,89.6862,VALID,0,VALID,23.8183,VALID,97,VALID,0,
2011-03-09, 00:44:04,VALID,1000.86,VALID,0,VALID,89.7091,VALID,0.112286,VALID,23.7988,VALID,97,VALID,0,
2011-03-09, 00:45:04,VALID,1000.87,VALID,0,VALID,89.7701,VALID,0,VALID,23.7793,VALID,97,VALID,0,
2011-03-09, 00:46:04,VALID,1000.85,VALID,0,VALID,89.938,VALID,0,VALID,23.7793,VALID,97,VALID,0,
2011-03-09, 00:47:04,VALID,1000.82,VALID,0,VALID,90.0524,VALID,0.112286,VALID,23.7384,VALID,97,VALID,0,
2011-03-09, 00:48:04,VALID,1000.81,VALID,0,VALID,90.0982,VALID,0,VALID,23.7189,VALID,97,VALID,0,
2011-03-09, 00:49:04,VALID,1000.82,VALID,0,VALID,90.1516,VALID,0,VALID,23.7402,VALID,97,VALID,0,
2011-03-09, 00:50:04,VALID,1000.79,VALID,0,VALID,90.2431,VALID,0,VALID,23.7207,VALID,97,VALID,0,
2011-03-09, 00:51:04,VALID,1000.78,VALID,0,VALID,90.3271,VALID,0.112286,VALID,23.7207,VALID,97,VALID,0,
2011-03-09, 00:52:04,VALID,1000.74,VALID,0,VALID,90.4034,VALID,0,VALID,23.6817,VALID,97,VALID,0.290625,
2011-03-09, 00:53:04,VALID,1000.78,VALID,0,VALID,90.472,VALID,0,VALID,23.7012,VALID,106,VALID,0.944531,
2011-03-09, 00:54:04,VALID,1000.76,VALID,0,VALID,90.411,VALID,0,VALID,23.7207,VALID,124,VALID,0.794531,
2011-03-09, 00:55:04,VALID,1000.73,VALID,0,VALID,90.3194,VALID,0,VALID,23.7597,VALID,124,VALID,0.480859,
2011-03-09, 00:56:04,VALID,1000.72,VALID,0,VALID,90.0295,VALID,0,VALID,23.7597,VALID,124,VALID,0.489844,
2011-03-09, 00:57:04,VALID,1000.71,VALID,0,VALID,89.8693,VALID,0,VALID,23.7384,VALID,124,VALID,0.616406,
2011-03-09, 00:58:04,VALID,1000.7,VALID,0,VALID,89.7243,VALID,0,VALID,23.7811,VALID,124,VALID,0.417188,
2011-03-09, 00:59:04,VALID,1000.69,VALID,0,VALID,89.6251,VALID,0,VALID,23.7597,VALID,124,VALID,0.646484,
2011-03-09, 01:00:04,VALID,1000.72,VALID,0,VALID,89.6099,VALID,0,VALID,23.8006,VALID,124,VALID,0.482422,
2011-03-09, 01:01:04,VALID,1000.73,VALID,0,VALID,89.5183,VALID,0,VALID,23.8006,VALID,124,VALID,0.422656,
2011-03-09, 01:02:04,VALID,1000.73,VALID,0,VALID,89.4954,VALID,0,VALID,23.8201,VALID,124,VALID,0.616797,
2011-03-09, 01:03:04,VALID,1000.75,VALID,0,VALID,89.526,VALID,0,VALID,23.8396,VALID,124,VALID,0.697266,
2011-03-09, 01:04:04,VALID,1000.71,VALID,0,VALID,89.5183,VALID,0,VALID,23.8396,VALID,124,VALID,0.552344,
2011-03-09, 01:05:04,VALID,1000.7,VALID,0,VALID,89.3886,VALID,0,VALID,23.8591,VALID,124,VALID,0.601172,
2011-03-09, 01:06:04,VALID,1000.66,VALID,0,VALID,89.3276,VALID,0,VALID,23.8591,VALID,124,VALID,0.394922,
2011-03-09, 01:07:04,VALID,1000.64,VALID,0,VALID,89.2894,VALID,0,VALID,23.8591,VALID,124,VALID,0.217187,
2011-03-09, 01:08:04,VALID,1000.56,VALID,0,VALID,89.2589,VALID,0,VALID,23.8183,VALID,124,VALID,0.180469,
2011-03-09, 01:09:04,VALID,1000.57,VALID,0,VALID,89.2666,VALID,0,VALID,23.8006,VALID,124,VALID,0.0894531,
2011-03-09, 01:10:04,VALID,1000.55,VALID,0,VALID,89.3123,VALID,0,VALID,23.7988,VALID,124,VALID,0.326953,
2011-03-09, 01:11:04,VALID,1000.55,VALID,0,VALID,89.1063,VALID,0,VALID,23.7811,VALID,153,VALID,0.598437,
2011-03-09, 01:12:04,VALID,1000.57,VALID,0,VALID,88.9003,VALID,0,VALID,23.7616,VALID,144,VALID,1.0957,
2011-03-09, 01:13:04,VALID,1000.55,VALID,0,VALID,88.6333,VALID,0,VALID,23.7597,VALID,133,VALID,1.18477,
2011-03-09, 01:14:04,VALID,1000.56,VALID,0,VALID,88.496,VALID,0,VALID,23.7384,VALID,133,VALID,1.15156,
2011-03-09, 01:15:04,VALID,1000.55,VALID,0,VALID,88.412,VALID,0,VALID,23.7402,VALID,124,VALID,1.5125,
2011-03-09, 01:16:04,VALID,1000.5,VALID,0,VALID,88.3815,VALID,0,VALID,23.7402,VALID,128,VALID,1.19297,
2011-03-09, 01:17:04,VALID,1000.49,VALID,0,VALID,88.4044,VALID,0,VALID,23.7402,VALID,128,VALID,1.44687,
2011-03-09, 01:18:04,VALID,1000.48,VALID,0,VALID,88.4349,VALID,0,VALID,23.7189,VALID,130,VALID,1.40039,
2011-03-09, 01:19:04,VALID,1000.46,VALID,0,VALID,88.3129,VALID,0,VALID,23.7384,VALID,129,VALID,1.25078,
2011-03-09, 01:20:04,VALID,1000.49,VALID,0,VALID,88.2289,VALID,0,VALID,23.7402,VALID,129,VALID,1.08945,
2011-03-09, 01:21:04,VALID,1000.53,VALID,0,VALID,88.2594,VALID,0,VALID,23.7402,VALID,127,VALID,1.07578,
2011-03-09, 01:22:04,VALID,1000.53,VALID,0,VALID,88.2671,VALID,0,VALID,23.7207,VALID,127,VALID,0.73125,
2011-03-09, 01:23:04,VALID,1000.53,VALID,0,VALID,88.2747,VALID,0,VALID,23.7012,VALID,127,VALID,0.439453,
2011-03-09, 01:24:04,VALID,1000.53,VALID,0,VALID,88.3357,VALID,0,VALID,23.6817,VALID,105,VALID,0.5875,
2011-03-09, 01:25:04,VALID,1000.54,VALID,0,VALID,88.3815,VALID,0,VALID,23.6622,VALID,105,VALID,0.357422,
2011-03-09, 01:26:04,VALID,1000.53,VALID,0,VALID,88.4349,VALID,0,VALID,23.6427,VALID,105,VALID,0.219922,
2011-03-09, 01:27:04,VALID,1000.49,VALID,0,VALID,88.5112,VALID,0,VALID,23.6427,VALID,105,VALID,0.00351562,
2011-03-09, 01:28:04,VALID,1000.49,VALID,0,VALID,88.6562,VALID,0,VALID,23.6036,VALID,105,VALID,0,
2011-03-09, 01:29:04,VALID,1000.43,VALID,0,VALID,88.824,VALID,0,VALID,23.5841,VALID,105,VALID,0,
2011-03-09, 01:30:04,VALID,1000.38,VALID,0,VALID,89.0071,VALID,0,VALID,23.5841,VALID,105,VALID,0.0710938,
2011-03-09, 01:31:04,VALID,1000.4,VALID,0,VALID,89.2284,VALID,0,VALID,23.5628,VALID,105,VALID,0.249219,
2011-03-09, 01:32:04,VALID,1000.34,VALID,0,VALID,89.4191,VALID,0,VALID,23.5841,VALID,105,VALID,0.414453,
2011-03-09, 01:33:04,VALID,1000.31,VALID,0,VALID,89.5107,VALID,0,VALID,23.5823,VALID,105,VALID,0.389844,
2011-03-09, 01:34:04,VALID,1000.32,VALID,0,VALID,89.5107,VALID,0,VALID,23.6036,VALID,105,VALID,0.192188,
2011-03-09, 01:35:04,VALID,1000.3,VALID,0,VALID,89.3734,VALID,0,VALID,23.5823,VALID,105,VALID,0.51875,
2011-03-09, 01:36:04,VALID,1000.27,VALID,0,VALID,89.2894,VALID,0.112286,VALID,23.6036,VALID,105,VALID,0.440625,
2011-03-09, 01:37:04,VALID,1000.26,VALID,0,VALID,89.2589,VALID,0,VALID,23.6036,VALID,105,VALID,0.291797,
2011-03-09, 01:38:04,VALID,1000.26,VALID,0,VALID,89.175,VALID,0,VALID,23.5823,VALID,105,VALID,0.303906,
2011-03-09, 01:39:04,VALID,1000.26,VALID,0,VALID,89.1903,VALID,0,VALID,23.5841,VALID,105,VALID,0.0617188,
2011-03-09, 01:40:04,VALID,1000.22,VALID,0,VALID,89.1903,VALID,0,VALID,23.5433,VALID,105,VALID,0,
2011-03-09, 01:41:04,VALID,1000.23,VALID,0,VALID,89.2284,VALID,0,VALID,23.5646,VALID,105,VALID,0,
2011-03-09, 01:42:04,VALID,1000.23,VALID,0,VALID,89.2208,VALID,0,VALID,23.5646,VALID,105,VALID,0,
2011-03-09, 01:43:04,VALID,1000.25,VALID,0,VALID,89.2513,VALID,0,VALID,23.5628,VALID,105,VALID,0,
2011-03-09, 01:44:04,VALID,1000.26,VALID,0,VALID,89.3047,VALID,0,VALID,23.5841,VALID,105,VALID,0.238281,
2011-03-09, 01:45:04,VALID,1000.28,VALID,0,VALID,89.3505,VALID,0,VALID,23.5841,VALID,105,VALID,0.207813,
2011-03-09, 01:46:04,VALID,1000.25,VALID,0,VALID,89.2513,VALID,0,VALID,23.6036,VALID,105,VALID,0.396875,
2011-03-09, 01:47:04,VALID,1000.3,VALID,0,VALID,89.1292,VALID,0.112286,VALID,23.5823,VALID,105,VALID,0.415234,
2011-03-09, 01:48:04,VALID,1000.28,VALID,0,VALID,89.0987,VALID,0,VALID,23.5823,VALID,105,VALID,0.48125,
2011-03-09, 01:49:04,VALID,1000.26,VALID,0,VALID,88.9766,VALID,0,VALID,23.6036,VALID,105,VALID,0.636719,
2011-03-09, 01:50:04,VALID,1000.27,VALID,0,VALID,88.6867,VALID,0,VALID,23.5646,VALID,75,VALID,1.05273,
2011-03-09, 01:51:04,VALID,1000.27,VALID,0,VALID,88.7859,VALID,0,VALID,23.5451,VALID,75,VALID,1.16289,
2011-03-09, 01:52:04,VALID,1000.3,VALID,0,VALID,88.9232,VALID,0,VALID,23.5451,VALID,75,VALID,1.11641,
2011-03-09, 01:53:04,VALID,1000.27,VALID,0,VALID,89.0148,VALID,0,VALID,23.5433,VALID,75,VALID,0.914844,
2011-03-09, 01:54:04,VALID,1000.28,VALID,0,VALID,88.9843,VALID,0,VALID,23.5646,VALID,66,VALID,0.838281,
2011-03-09, 01:55:04,VALID,1000.29,VALID,0,VALID,88.9766,VALID,0,VALID,23.5628,VALID,58,VALID,0.922656,
2011-03-09, 01:56:04,VALID,1000.29,VALID,0,VALID,88.9156,VALID,0,VALID,23.5646,VALID,58,VALID,0.807813,
2011-03-09, 01:57:04,VALID,1000.32,VALID,0,VALID,88.8851,VALID,0,VALID,23.5433,VALID,58,VALID,0.582031,
2011-03-09, 01:58:04,VALID,1000.29,VALID,0,VALID,88.8851,VALID,0,VALID,23.5238,VALID,58,VALID,0.786328,
2011-03-09, 01:59:04,VALID,1000.26,VALID,0,VALID,88.9156,VALID,0,VALID,23.5061,VALID,26,VALID,1.00391,
2011-03-09, 02:00:04,VALID,1000.26,VALID,0,VALID,89.3276,VALID,0,VALID,23.4848,VALID,22,VALID,0.892969,
2011-03-09, 02:01:04,VALID,1000.24,VALID,0,VALID,89.6709,VALID,0,VALID,23.5061,VALID,22,VALID,0.900391,
2011-03-09, 02:02:04,VALID,1000.23,VALID,0,VALID,89.854,VALID,0,VALID,23.4653,VALID,22,VALID,0.772266,
2011-03-09, 02:03:04,VALID,1000.21,VALID,0,VALID,89.9074,VALID,0.112286,VALID,23.428,VALID,22,VALID,0.990625,
2011-03-09, 02:04:04,VALID,1000.17,VALID,0,VALID,90.0295,VALID,0,VALID,23.3872,VALID,22,VALID,1.09297,
2011-03-09, 02:05:04,VALID,1000.15,VALID,0,VALID,90.2279,VALID,0,VALID,23.3677,VALID,35,VALID,0.964453,
2011-03-09, 02:06:04,VALID,1000.14,VALID,0,VALID,90.3881,VALID,0,VALID,23.389,VALID,35,VALID,0.721484,
2011-03-09, 02:07:04,VALID,1000.09,VALID,0,VALID,90.5178,VALID,0,VALID,23.3677,VALID,37,VALID,0.725391,
2011-03-09, 02:08:04,VALID,1000.06,VALID,0,VALID,90.678,VALID,0,VALID,23.389,VALID,37,VALID,0.754687,
2011-03-09, 02:09:04,VALID,1000.04,VALID,0,VALID,90.8383,VALID,0,VALID,23.3872,VALID,37,VALID,0.723047,
2011-03-09, 02:10:04,VALID,999.965,VALID,0,VALID,90.8993,VALID,0,VALID,23.4085,VALID,37,VALID,0.278906,
2011-03-09, 02:11:04,VALID,999.964,VALID,0,VALID,90.9298,VALID,0.112286,VALID,23.3872,VALID,37,VALID,0.226172,
2011-03-09, 02:12:04,VALID,999.913,VALID,0,VALID,90.9298,VALID,0,VALID,23.3872,VALID,37,VALID,0,
2011-03-09, 02:13:04,VALID,999.944,VALID,0,VALID,90.9374,VALID,0,VALID,23.3677,VALID,37,VALID,0,
2011-03-09, 02:14:04,VALID,999.95,VALID,0,VALID,90.9374,VALID,0,VALID,23.35,VALID,37,VALID,0,
2011-03-09, 02:15:04,VALID,999.977,VALID,0,VALID,90.9985,VALID,0,VALID,23.3482,VALID,37,VALID,0,
2011-03-09, 02:16:04,VALID,999.975,VALID,0,VALID,91.0519,VALID,0,VALID,23.35,VALID,37,VALID,0.003125,
2011-03-09, 02:17:04,VALID,1000.02,VALID,0,VALID,91.1053,VALID,0,VALID,23.3287,VALID,37,VALID,0.241797,
2011-03-09, 02:18:04,VALID,1000.02,VALID,0,VALID,91.1892,VALID,0.112286,VALID,23.3482,VALID,37,VALID,0.110156,
2011-03-09, 02:19:04,VALID,1000.01,VALID,0,VALID,91.2274,VALID,0,VALID,23.3287,VALID,37,VALID,0.05625,
2011-03-09, 02:20:04,VALID,999.999,VALID,0,VALID,91.2579,VALID,0.112286,VALID,23.3287,VALID,37,VALID,0,
2011-03-09, 02:21:04,VALID,1000,VALID,0,VALID,91.2655,VALID,0.112286,VALID,23.3092,VALID,37,VALID,0,
2011-03-09, 02:22:04,VALID,999.968,VALID,0,VALID,91.3037,VALID,0,VALID,23.3287,VALID,37,VALID,0,
2011-03-09, 02:23:04,VALID,999.967,VALID,0,VALID,91.3189,VALID,0.112286,VALID,23.3305,VALID,37,VALID,0,
2011-03-09, 02:24:04,VALID,999.969,VALID,0,VALID,91.3723,VALID,0,VALID,23.3305,VALID,37,VALID,0,
2011-03-09, 02:25:04,VALID,999.975,VALID,0,VALID,91.441,VALID,0,VALID,23.3092,VALID,37,VALID,0.132813,
2011-03-09, 02:26:04,VALID,999.98,VALID,0,VALID,91.4868,VALID,0.112286,VALID,23.3287,VALID,37,VALID,0.335547,
2011-03-09, 02:27:04,VALID,999.961,VALID,0,VALID,91.5249,VALID,0,VALID,23.35,VALID,37,VALID,0.430859,
2011-03-09, 02:28:04,VALID,999.991,VALID,0,VALID,91.5326,VALID,0,VALID,23.3695,VALID,37,VALID,0.490234,
2011-03-09, 02:29:04,VALID,1000.01,VALID,0,VALID,91.5173,VALID,0.112286,VALID,23.3695,VALID,37,VALID,0.672266,
2011-03-09, 02:30:04,VALID,1000.02,VALID,0,VALID,91.4715,VALID,0,VALID,23.3695,VALID,37,VALID,0.882031,
2011-03-09, 02:31:04,VALID,1000.01,VALID,0,VALID,91.4181,VALID,0,VALID,23.3695,VALID,37,VALID,0.769922,
2011-03-09, 02:32:04,VALID,1000.03,VALID,0,VALID,91.38,VALID,0,VALID,23.389,VALID,37,VALID,0.490234,
2011-03-09, 02:33:04,VALID,1000.01,VALID,0,VALID,91.38,VALID,0,VALID,23.3677,VALID,37,VALID,0.273047,
2011-03-09, 02:34:04,VALID,999.975,VALID,0,VALID,91.38,VALID,0,VALID,23.3677,VALID,37,VALID,0,
2011-03-09, 02:35:04,VALID,999.973,VALID,0,VALID,91.3113,VALID,0,VALID,23.3482,VALID,37,VALID,0,
2011-03-09, 02:36:04,VALID,999.961,VALID,0,VALID,91.296,VALID,0,VALID,23.3482,VALID,37,VALID,0.236328,
2011-03-09, 02:37:04,VALID,999.933,VALID,0,VALID,91.296,VALID,0,VALID,23.3695,VALID,37,VALID,0.396094,
2011-03-09, 02:38:04,VALID,999.94,VALID,0,VALID,91.3342,VALID,0,VALID,23.389,VALID,37,VALID,0.473828,
2011-03-09, 02:39:04,VALID,999.901,VALID,0,VALID,91.3647,VALID,0,VALID,23.3872,VALID,157,VALID,0.78125,
2011-03-09, 02:40:04,VALID,999.909,VALID,0,VALID,91.4028,VALID,0,VALID,23.428,VALID,157,VALID,0.877344,
2011-03-09, 02:41:04,VALID,999.893,VALID,0,VALID,91.4105,VALID,0,VALID,23.4671,VALID,157,VALID,0.476563,
2011-03-09, 02:42:04,VALID,999.901,VALID,0,VALID,91.38,VALID,0,VALID,23.4866,VALID,178,VALID,0.776172,
2011-03-09, 02:43:04,VALID,999.881,VALID,0,VALID,91.3037,VALID,0.112286,VALID,23.5646,VALID,178,VALID,0.544141,
2011-03-09, 02:44:04,VALID,999.9,VALID,0,VALID,91.2045,VALID,0,VALID,23.5841,VALID,179,VALID,0.520312,
2011-03-09, 02:45:04,VALID,999.892,VALID,0,VALID,91.0214,VALID,0,VALID,23.5841,VALID,179,VALID,0.366016,
2011-03-09, 02:46:04,VALID,999.863,VALID,0,VALID,90.8611,VALID,0,VALID,23.5433,VALID,179,VALID,0.363672,
2011-03-09, 02:47:04,VALID,999.894,VALID,0,VALID,90.762,VALID,0,VALID,23.5646,VALID,179,VALID,0.265234,
2011-03-09, 02:48:04,VALID,999.888,VALID,0,VALID,90.7085,VALID,0,VALID,23.5451,VALID,179,VALID,0.169141,
2011-03-09, 02:49:04,VALID,999.905,VALID,0,VALID,90.6323,VALID,0,VALID,23.5238,VALID,179,VALID,0.283594,
2011-03-09, 02:50:04,VALID,999.951,VALID,0,VALID,90.5178,VALID,0,VALID,23.5451,VALID,179,VALID,0.319531,
2011-03-09, 02:51:04,VALID,999.959,VALID,0,VALID,90.472,VALID,0,VALID,23.5451,VALID,179,VALID,0.137891,
2011-03-09, 02:52:04,VALID,999.993,VALID,0,VALID,90.4186,VALID,0,VALID,23.5256,VALID,179,VALID,0.0992187,
2011-03-09, 02:53:04,VALID,999.959,VALID,0,VALID,90.3728,VALID,0,VALID,23.5256,VALID,179,VALID,0,
2011-03-09, 02:54:04,VALID,999.985,VALID,0,VALID,90.3347,VALID,0,VALID,23.5061,VALID,179,VALID,0.340234,
2011-03-09, 02:55:04,VALID,1000.01,VALID,0,VALID,90.2126,VALID,0,VALID,23.4475,VALID,179,VALID,0.872656,
2011-03-09, 02:56:04,VALID,1000.06,VALID,0,VALID,90.1897,VALID,0,VALID,23.4866,VALID,174,VALID,0.900391,
2011-03-09, 02:57:04,VALID,1000.07,VALID,0,VALID,89.9761,VALID,0,VALID,23.5451,VALID,153,VALID,1.05664,
2011-03-09, 02:58:04,VALID,1000.08,VALID,0,VALID,89.648,VALID,0.112286,VALID,23.5823,VALID,153,VALID,0.894922,
2011-03-09, 02:59:04,VALID,1000.11,VALID,0,VALID,89.3657,VALID,0,VALID,23.6019,VALID,145,VALID,0.89375,
2011-03-09, 03:00:04,VALID,1000.12,VALID,0,VALID,89.0453,VALID,0.112286,VALID,23.6019,VALID,142,VALID,0.921875,
2011-03-09, 03:01:04,VALID,1000.12,VALID,0,VALID,88.9003,VALID,0,VALID,23.6232,VALID,135,VALID,0.924609,
2011-03-09, 03:02:04,VALID,1000.13,VALID,0,VALID,88.9766,VALID,0,VALID,23.6427,VALID,126,VALID,0.837891,
2011-03-09, 03:03:04,VALID,1000.11,VALID,0,VALID,89.0224,VALID,0,VALID,23.6409,VALID,126,VALID,0.698828,
2011-03-09, 03:04:04,VALID,1000.12,VALID,0,VALID,89.0148,VALID,0,VALID,23.6622,VALID,126,VALID,0.678125,
2011-03-09, 03:05:04,VALID,1000.1,VALID,0,VALID,89.0911,VALID,0,VALID,23.6214,VALID,103,VALID,0.775,
2011-03-09, 03:06:04,VALID,1000.11,VALID,0,VALID,89.2055,VALID,0,VALID,23.6427,VALID,92,VALID,0.887891,
2011-03-09, 03:07:04,VALID,1000.12,VALID,0,VALID,89.3657,VALID,0,VALID,23.6036,VALID,69,VALID,0.983594,
2011-03-09, 03:08:04,VALID,1000.14,VALID,0,VALID,89.4115,VALID,0,VALID,23.5433,VALID,64,VALID,1.03984,
2011-03-09, 03:09:04,VALID,1000.14,VALID,0,VALID,89.6023,VALID,0,VALID,23.5256,VALID,58,VALID,1.07461,
2011-03-09, 03:10:04,VALID,1000.17,VALID,0,VALID,89.8464,VALID,0,VALID,23.5061,VALID,40,VALID,1.15273,
2011-03-09, 03:11:04,VALID,1000.18,VALID,0,VALID,90.0066,VALID,0.112286,VALID,23.4653,VALID,30,VALID,1.02734,
2011-03-09, 03:12:04,VALID,1000.2,VALID,0,VALID,90.1821,VALID,0,VALID,23.4085,VALID,7,VALID,1.17266,
2011-03-09, 03:13:04,VALID,1000.18,VALID,0,VALID,90.411,VALID,0,VALID,23.3677,VALID,7,VALID,1.18242,
2011-03-09, 03:14:04,VALID,1000.17,VALID,0,VALID,90.6628,VALID,0,VALID,23.3677,VALID,7,VALID,0.980859,
2011-03-09, 03:15:04,VALID,1000.18,VALID,0,VALID,90.8688,VALID,0,VALID,23.389,VALID,7,VALID,0.924219,
2011-03-09, 03:16:04,VALID,1000.22,VALID,0,VALID,91.029,VALID,0,VALID,23.389,VALID,7,VALID,0.748047,
2011-03-09, 03:17:04,VALID,1000.23,VALID,0,VALID,91.1129,VALID,0.112286,VALID,23.389,VALID,7,VALID,0.635547,
2011-03-09, 03:18:04,VALID,1000.22,VALID,0,VALID,91.2197,VALID,0,VALID,23.4085,VALID,7,VALID,0.732813,
2011-03-09, 03:19:04,VALID,1000.27,VALID,0,VALID,91.2884,VALID,0,VALID,23.428,VALID,7,VALID,0.789063,
2011-03-09, 03:20:04,VALID,1000.26,VALID,0,VALID,91.3189,VALID,0,VALID,23.428,VALID,7,VALID,0.642969,
2011-03-09, 03:21:04,VALID,1000.3,VALID,0,VALID,91.2884,VALID,0,VALID,23.4475,VALID,7,VALID,0.239453,
2011-03-09, 03:22:04,VALID,1000.27,VALID,0,VALID,91.2274,VALID,0,VALID,23.4475,VALID,7,VALID,0.405469,
2011-03-09, 03:23:04,VALID,1000.28,VALID,0,VALID,91.2426,VALID,0.112286,VALID,23.4475,VALID,7,VALID,0.480078,
2011-03-09, 03:24:04,VALID,1000.27,VALID,0,VALID,91.235,VALID,0,VALID,23.4475,VALID,7,VALID,0.298047,
2011-03-09, 03:25:04,VALID,1000.25,VALID,0,VALID,91.2045,VALID,0,VALID,23.428,VALID,7,VALID,0.360938,
2011-03-09, 03:26:04,VALID,1000.23,VALID,0,VALID,91.1968,VALID,0,VALID,23.428,VALID,7,VALID,0.213672,
2011-03-09, 03:27:04,VALID,1000.23,VALID,0,VALID,91.2045,VALID,0,VALID,23.428,VALID,7,VALID,0.202734,
2011-03-09, 03:28:04,VALID,1000.24,VALID,0,VALID,91.235,VALID,0,VALID,23.428,VALID,7,VALID,0.0484375,
2011-03-09, 03:29:04,VALID,1000.24,VALID,0,VALID,91.2426,VALID,0,VALID,23.4298,VALID,7,VALID,0,
2011-03-09, 03:30:04,VALID,1000.26,VALID,0,VALID,91.2274,VALID,0,VALID,23.4298,VALID,7,VALID,0,
2011-03-09, 03:31:04,VALID,1000.23,VALID,0,VALID,91.1968,VALID,0,VALID,23.389,VALID,7,VALID,0,
2011-03-09, 03:32:04,VALID,1000.23,VALID,0,VALID,91.1892,VALID,0,VALID,23.3695,VALID,7,VALID,0.0570313,
2011-03-09, 03:33:04,VALID,1000.22,VALID,0,VALID,91.2121,VALID,0,VALID,23.3908,VALID,7,VALID,0.213672,
2011-03-09, 03:34:04,VALID,1000.25,VALID,0,VALID,91.2197,VALID,0,VALID,23.35,VALID,7,VALID,0.227344,
2011-03-09, 03:35:04,VALID,1000.23,VALID,0,VALID,91.2274,VALID,0,VALID,23.3518,VALID,7,VALID,0.180469,
2011-03-09, 03:36:04,VALID,1000.25,VALID,0,VALID,91.2503,VALID,0,VALID,23.3713,VALID,7,VALID,0.294922,
2011-03-09, 03:37:04,VALID,1000.26,VALID,0,VALID,91.235,VALID,0,VALID,23.3908,VALID,7,VALID,0.547266,
2011-03-09, 03:38:04,VALID,1000.26,VALID,0,VALID,91.2426,VALID,0,VALID,23.3908,VALID,137,VALID,0.694922,
2011-03-09, 03:39:04,VALID,1000.27,VALID,0,VALID,91.2655,VALID,0,VALID,23.4298,VALID,137,VALID,0.992188,
2011-03-09, 03:40:04,VALID,1000.26,VALID,0,VALID,91.2045,VALID,0,VALID,23.4493,VALID,137,VALID,1.04922,
2011-03-09, 03:41:04,VALID,1000.23,VALID,0,VALID,91.1968,VALID,0,VALID,23.4298,VALID,137,VALID,1.04531,
2011-03-09, 03:42:04,VALID,1000.27,VALID,0,VALID,91.1816,VALID,0,VALID,23.4475,VALID,137,VALID,0.866016,
2011-03-09, 03:43:04,VALID,1000.25,VALID,0,VALID,91.2274,VALID,0,VALID,23.4475,VALID,137,VALID,0.939062,
2011-03-09, 03:44:04,VALID,1000.27,VALID,0,VALID,91.2045,VALID,0,VALID,23.4475,VALID,137,VALID,0.928516,
2011-03-09, 03:45:04,VALID,1000.27,VALID,0,VALID,91.1053,VALID,0,VALID,23.4067,VALID,137,VALID,0.833203,
2011-03-09, 03:46:04,VALID,1000.28,VALID,0,VALID,91.0366,VALID,0.112286,VALID,23.4085,VALID,137,VALID,0.8375,